Theta_e
339 338 341 339 339 339 343 341 345 346 345 344 345 348 346 346 347 346 343 346 345 343 346 346 346 344 346 347 342 341 342 346 348 347 346 346 346 341 340 345 344 347 347
344 338 338 338 338 338 338 341 344 343 344 344 346 346 345 344 344 345 341 341 344 345 345 344 347 344 342 342 345 345 342 341 344 347 346 345 343 344 344 342 346 344 347
346 342 339 339 340 339 338 338 342 345 343 344 343 342 342 343 344 343 343 344 343 343 343 343 343 344 344 344 345 347 347 345 347 347 345 346 344 342 345 346 344 345 343
347 343 339 341 342 341 342 344 347 344 343 345 349 349 347 345 345 344 342 344 344 345 346 344 344 344 347 346 347 348 347 346 347 346 345 347 347 346 346 345 344 345 345
348 346 340 342 348 349 349 346 345 347 350 349 347 349 348 347 344 344 345 344 344 346 347 345 346 346 344 343 344 346 346 347 347 345 344 344 343 344 345 343 345 346 344
348 348 342 341 347 350 351 350 347 347 348 347 348 349 349 345 345 344 344 344 346 347 347 348 348 347 345 346 345 345 347 349 347 344 343 345 345 344 343 342 344 346 346
348 349 346 344 349 350 349 347 346 348 347 348 348 345 344 346 346 344 344 345 345 344 344 345 344 345 347 346 346 346 346 344 344 347 347 345 342 341 341 340 338 340 343
349 350 349 348 351 350 351 349 349 350 348 345 347 346 345 347 344 344 342 342 343 341 346 346 345 344 345 345 346 345 346 347 348 346 347 347 345 345 344 345 346 346 344
350 349 348 348 350 350 351 343 347 349 349 348 348 346 345 345 345 345 344 345 344 344 342 343 343 343 343 343 344 344 342 342 342 342 344 344 343 342 344 344 342 344 345
347 349 350 349 349 349 347 346 350 350 348 344 340 338 337 334 336 337 338 339 338 341 343 342 340 341 342 343 344 345 345 343 343 343 343 342 341 341 342 342 341 343 344
351 351 351 349 347 350 351 350 350 347 342 334 331 333 334 336 337 338 338 334 331 331 333 333 333 332 336 340 339 341 344 346 345 345 345 345 343 343 342 343 344 344 343
350 349 350 351 352 352 350 347 340 337 334 336 337 339 340 338 336 337 337 338 338 337 340 337 336 335 336 337 338 340 342 343 344 344 344 343 343 345 345 344 343 343 343
353 353 352 352 352 351 345 338 341 338 337 337 339 343 340 336 335 335 336 336 337 340 340 337 336 334 334 335 337 340 341 342 342 342 341 341 340 340 339 340 341 341 341
352 349 350 350 350 348 340 340 339 338 339 341 339 336 336 335 334 332 329 336 338 337 335 336 335 334 333 332 329 330 334 339 340 341 339 340 341 342 342 341 341 341 339
347 350 350 348 337 336 339 340 340 340 338 340 338 337 337 336 333 332 330 330 332 334 334 333 332 331 330 329 327 326 330 334 336 336 336 336 336 336 335 337 336 337 337
348 343 334 337 341 343 343 343 342 342 340 339 339 336 333 333 333 333 331 328 330 330 329 329 329 329 329 328 327 324 333 333 334 334 334 333 333 333 333 334 335 336 336
329 334 339 343 344 344 340 343 344 337 335 335 334 333 332 334 334 332 328 326 328 329 328 329 329 329 329 331 332 332 334 332 333 331 331 331 331 333 334 335 335 335 334
336 341 341 342 341 338 336 335 334 333 332 333 332 333 333 334 334 330 329 326 327 328 328 329 329 329 328 329 330 330 330 330 330 330 330 331 331 335 334 334 332 331 330
338 338 340 340 337 334 333 333 332 332 333 331 332 331 333 334 332 330 328 327 327 328 328 328 329 329 329 330 329 329 329 329 330 330 331 331 332 332 332 330 328 328 327
336 338 337 333 330 331 332 330 331 333 333 334 332 331 332 333 332 329 328 327 327 328 328 328 329 329 329 330 329 328 329 329 330 330 330 330 329 329 327 326 325 325 324
333 329 329 329 329 327 328 330 332 332 332 333 333 330 330 332 328 327 327 327 328 328 329 329 329 329 328 328 327 327 327 327 327 327 326 326 325 325 324 324 324 323 321
326 331 332 332 331 330 331 331 330 329 328 327 327 328 330 330 326 326 328 328 328 327 326 325 326 326 327 327 327 327 326 326 325 324 324 323 323 322 322 322 321 320 320
331 333 334 333 332 332 331 328 327 328 329 330 327 329 328 327 326 326 327 326 325 324 325 324 325 325 325 325 325 325 324 324 324 323 323 323 323 322 322 321 320 319 319
335 335 335 333 332 331 330 330 328 329 331 330 327 326 327 327 327 327 326 325 325 323 322 322 323 323 323 322 322 321 322 321 319 318 319 318 318 318 318 317 317 316 315
336 334 333 333 331 331 331 331 330 330 331 328 326 328 327 327 327 324 324 324 323 322 321 321 321 320 318 316 315 315 315 315 315 316 317 317 317 317 317 318 319 317 315
335 334 332 332 331 331 331 331 329 329 330 328 327 328 327 328 327 326 325 322 321 318 317 317 316 316 317 318 318 319 318 318 318 318 318 318 318 319 320 318 318 316 316
Wind_Speed
25 25 26 26 24 23 21 23 21 16 13 11 12 16 18 14 14 12 12 11 12 15 13 14 14 14 13 12 15 13 14 10 6 7 11 12 13 12 14 15 17 15 14
20 22 24 22 22 22 24 23 21 18 16 15 15 16 16 16 17 16 16 15 15 16 17 16 15 12 16 18 17 17 13 13 15 13 14 13 12 11 14 17 15 18 17
22 20 22 23 22 21 19 19 20 17 16 15 13 15 17 18 19 20 20 20 20 19 19 19 18 17 18 16 14 14 14 14 15 15 17 15 13 13 15 18 17 15 17
23 21 21 21 19 17 16 16 16 16 15 15 16 13 13 14 15 16 18 19 19 17 16 17 19 20 18 18 18 17 15 14 15 17 18 14 14 17 17 18 18 20 17
26 24 23 19 18 16 15 17 17 18 20 20 17 18 14 14 16 15 17 18 18 17 15 15 18 18 17 19 22 22 20 17 17 17 18 19 19 16 17 16 19 22 20
29 25 22 19 17 16 17 18 18 19 19 17 17 16 18 17 16 16 16 17 17 19 18 17 17 18 19 24 23 22 19 17 20 21 21 20 19 17 17 18 19 22 25
30 27 24 20 20 20 18 16 18 19 18 17 18 18 19 20 18 18 17 19 19 19 21 22 22 21 21 21 23 24 26 24 24 23 24 24 23 23 23 22 23 24 26
29 28 26 22 23 20 18 16 15 17 17 15 14 13 14 15 16 17 18 19 18 18 19 18 19 20 21 22 23 24 23 24 25 23 24 24 24 23 22 22 23 26 28
29 29 28 24 21 20 20 17 15 14 14 13 13 13 14 13 13 13 14 14 16 16 16 15 16 18 19 19 23 26 27 27 26 28 28 27 26 24 24 23 24 25 28
27 26 26 24 20 18 17 15 14 12 11 11 9 9 8 7 6 8 10 11 12 13 12 14 16 16 17 18 20 22 26 26 25 25 27 27 25 25 23 25 26 27 27
22 24 24 21 17 15 13 13 12 12 10 8 5 4 5 6 8 9 10 11 10 11 12 13 15 18 20 20 19 19 22 20 21 23 24 23 23 24 24 25 26 27 29
18 18 19 18 17 16 13 11 9 7 6 5 4 4 7 7 7 9 12 13 10 12 12 13 16 15 15 17 17 16 17 19 19 20 21 20 20 19 21 22 24 24 22
18 18 18 19 18 15 13 12 9 7 6 7 9 12 11 8 11 13 10 13 14 15 17 17 16 14 13 14 15 16 17 16 17 18 18 19 20 20 20 19 19 19 19
20 21 20 18 17 15 13 12 10 10 10 10 9 8 10 12 14 14 13 15 16 18 19 18 18 19 19 19 19 18 16 13 14 13 15 15 14 15 17 18 19 19 20
21 19 17 17 16 14 12 9 9 9 12 13 13 14 15 17 16 16 15 16 18 20 22 24 25 26 26 25 22 19 16 13 17 15 15 16 18 20 21 20 18 14 14
20 20 20 18 15 12 12 12 12 13 15 16 17 17 16 17 14 14 17 14 15 18 20 21 22 22 21 20 19 16 15 14 17 18 18 19 20 22 15 12 12 12 13
20 20 17 14 13 14 12 15 16 14 12 13 15 16 17 17 16 17 17 18 17 17 16 14 13 12 12 7 5 7 11 15 16 17 20 19 17 14 10 10 10 11 12
19 16 15 15 14 12 10 10 12 15 15 15 16 17 19 18 17 16 20 22 16 12 10 9 10 9 7 8 8 10 13 16 18 19 18 15 13 12 9 8 10 10 11
21 20 16 15 12 12 11 10 9 10 10 13 16 16 17 18 16 16 20 19 15 9 7 8 8 9 9 11 13 13 14 15 15 14 12 11 9 8 8 9 10 11 13
23 16 13 12 12 11 10 11 12 13 13 17 16 16 16 16 16 18 20 15 12 8 7 9 10 11 11 11 11 11 11 9 9 8 8 8 8 8 8 11 14 15 15
23 19 15 9 7 10 11 12 13 15 17 17 17 17 15 15 18 20 18 13 10 8 8 8 9 9 8 9 10 9 7 8 8 5 5 5 7 10 11 13 14 17 24
25 22 16 11 11 11 11 12 14 15 16 16 17 15 13 15 16 17 13 8 4 4 8 7 4 5 4 4 3 3 3 3 3 5 8 10 13 15 16 18 24 25 22
25 21 18 16 14 12 12 13 15 13 14 17 15 12 11 11 11 9 5 1 3 4 3 4 4 4 4 4 5 7 7 9 12 14 19 22 23 24 24 24 21 19 15
24 22 21 20 15 13 12 13 13 14 13 17 14 9 6 7 4 4 0 1 2 4 8 9 11 14 16 18 19 19 20 21 22 23 23 24 25 23 21 19 16 12 9
23 24 21 19 16 14 15 14 15 16 16 17 10 8 7 6 6 4 4 1 3 4 6 8 12 15 18 20 22 22 22 23 22 23 21 19 18 16 15 14 8 8 10
25 23 21 19 18 17 15 15 15 16 15 16 10 9 9 9 10 9 5 6 10 11 12 15 17 18 17 16 16 16 14 12 12 9 6 7 10 8 7 6 8 12 14
Wind_Direction
200 200 200 202 204 204 207 207 214 218 225 217 201 197 217 229 244 245 248 255 262 256 256 263 259 261 264 274 266 278 284 274 277 250 275 270 245 266 261 235 240 248 252
197 198 201 202 204 206 209 213 218 231 236 226 226 231 240 241 242 246 259 256 264 263 262 260 260 265 261 262 265 278 274 267 267 271 281 277 266 290 267 247 253 256 260
202 200 201 201 205 210 212 214 212 219 224 234 243 246 247 249 249 252 254 259 266 265 266 259 263 258 258 257 256 272 276 264 262 270 269 270 265 266 261 245 245 250 249
204 201 197 195 193 200 208 209 210 206 216 224 240 250 256 255 256 252 251 257 262 266 265 258 266 260 259 258 262 263 264 267 262 270 259 256 262 265 261 253 249 256 268
208 210 207 211 208 210 219 223 228 230 237 238 241 240 256 256 256 256 256 258 258 258 259 252 255 260 255 257 261 264 262 264 269 268 270 260 263 263 257 262 269 265 262
213 214 212 214 213 217 226 234 235 235 235 233 238 245 254 258 261 261 255 256 254 259 261 259 259 259 260 257 262 262 264 263 267 267 267 267 263 261 264 268 272 263 254
216 217 220 220 222 228 227 242 238 247 247 245 247 255 257 254 258 259 255 253 258 264 271 269 268 267 266 264 258 257 262 265 261 264 265 266 271 267 268 265 268 271 271
221 220 223 221 224 225 236 244 244 242 243 244 246 254 258 259 255 253 265 258 259 261 269 268 270 273 268 262 261 259 259 257 260 264 267 272 272 274 273 269 268 264 265
219 222 228 227 224 236 241 237 238 230 231 244 253 253 256 257 258 258 256 258 260 264 268 271 273 274 272 264 261 261 261 260 260 263 264 268 270 274 269 264 262 264 262
224 223 227 231 240 243 237 238 232 239 249 249 246 254 261 267 262 265 268 268 270 269 269 272 279 280 277 272 268 269 269 271 270 264 262 265 270 266 266 261 262 263 264
225 225 225 232 232 232 230 234 239 244 239 250 247 261 266 276 276 278 283 275 279 276 280 282 287 284 277 275 278 279 272 272 271 270 269 269 268 267 266 265 265 267 270
206 207 217 220 221 225 231 231 226 246 243 228 215 227 257 271 298 279 274 271 264 268 266 278 295 295 288 280 280 282 280 274 273 273 269 272 272 268 263 266 271 273 270
202 212 213 214 221 224 226 215 229 243 232 218 244 259 266 266 288 291 275 274 270 263 272 281 284 291 297 297 292 280 275 276 274 271 269 268 270 275 276 273 271 272 274
207 204 207 213 218 232 224 227 234 227 255 270 276 284 278 283 299 303 282 268 261 267 270 274 279 286 290 292 289 282 276 274 273 281 289 287 284 286 287 284 281 277 277
201 205 211 220 221 215 214 227 253 271 264 269 278 284 289 296 300 303 307 284 272 271 274 278 281 283 284 282 279 273 260 262 265 275 280 279 282 288 286 281 278 274 272
203 210 204 197 200 210 233 246 252 260 259 263 272 281 289 290 289 297 308 299 289 290 288 286 285 286 285 282 277 262 239 256 269 274 276 280 284 287 279 272 268 262 257
205 200 198 203 215 238 236 235 250 257 253 257 265 273 287 292 286 298 312 309 298 296 296 301 304 302 298 300 293 254 247 259 265 272 282 286 282 271 255 259 255 245 237
204 204 205 204 215 235 240 246 265 282 286 282 283 285 279 276 281 302 317 318 307 287 292 297 298 304 291 284 271 268 265 268 270 276 277 271 268 258 245 242 229 219 205
204 200 198 205 221 235 240 252 266 272 280 272 278 290 285 276 283 303 316 314 306 270 281 287 284 287 286 284 283 281 277 274 271 266 261 256 253 237 231 219 196 187 181
198 197 205 217 221 236 251 262 262 269 277 272 278 292 289 279 290 307 312 303 295 280 281 284 282 281 283 284 280 285 284 276 273 263 247 235 227 220 199 182 181 172 162
199 198 196 200 233 237 242 254 267 278 285 286 290 296 288 283 303 314 310 292 293 290 289 288 285 282 281 284 280 273 273 275 272 250 219 204 184 169 166 165 164 152 142
201 198 197 207 223 230 246 260 274 287 294 298 302 303 291 294 300 311 306 292 297 321 309 293 283 270 270 268 257 261 248 226 202 177 158 150 148 143 141 144 141 141 142
203 203 205 216 231 240 254 276 288 284 296 306 300 291 285 286 298 303 298 349 15 352 38 90 97 94 102 101 109 110 113 124 128 130 133 129 127 127 129 135 139 140 143
206 214 214 222 230 244 254 279 293 288 288 309 298 278 266 278 280 269 195 3 16 71 82 93 94 96 100 106 109 111 113 117 119 122 125 125 123 124 125 129 137 142 139
217 219 228 231 232 240 254 279 289 281 287 310 279 254 272 247 213 179 184 201 129 99 98 119 120 116 115 114 115 116 117 118 123 128 133 142 146 147 153 153 155 180 180
218 223 225 236 236 234 253 274 286 279 286 305 269 250 260 229 207 206 179 132 121 109 121 125 122 124 123 122 124 125 125 124 127 131 155 182 186 199 206 202 220 204 209